User: anonymous   Login
Location: Vallejo Observatory
(38.1221°N, 122.2109°W)
Time: 03:40:15
(UTC-07:00)
Language:

MOS 1 Rocket - Orbit

View from above orbital plane
View from above orbital plane
View from above satellite
View from above satellite

Ground track
Ground track

The orbit data is extracted from the following two-line orbital elements,

1 17528U 87018B   16151.00374080  .00000183  00000-0  49199-4 0  9991
2 17528  97.4051 146.7397 0153851  59.1116   2.2271 14.50654926544328
Epoch (UTC): 30 May 2016 00:05:23
Eccentricity: 0.0153851
inclination: 97.4051°
perigee height: 614 km
apogee height: 833 km
right ascension of ascending node: 146.7397°
argument of perigee: 59.1116°
revolutions per day: 14.50654926
mean anomaly at epoch: 2.2271°
orbit number at epoch: 54432

The dashed part of the orbit path shows where the satellite is in the earth's shadow,  

DLR